Change the Weather History Date:

Thursday, October 20, 2011

  Actual Average Record
Temperature  
Mean Temperature 50 °F -  
Max Temperature 54 °F 58 °F 73 °F (2000)
Min Temperature 45 °F 45 °F 42 °F (2002)
Degree Days  
Heating Degree Days 15    
Moisture  
Dew Point 43 °F    
Average Humidity 84    
Maximum Humidity 93    
Minimum Humidity 68    
Precipitation  
Precipitation 0.33 in - - ()
Sea Level Pressure  
Sea Level Pressure 29.34 in    
Wind  
Wind Speed 18 mph (SSW)    
Max Wind Speed 25 mph    
Max Gust Speed 38 mph    
Visibility 7 miles    
Events Rain    
Averages and records for this station are not official NWS values.
T = Trace of Precipitation, MM = Missing Value Source: NWS Daily Summary

Daily Weather History Graph

Daily Weather History Graph

Search for Another Location

Airport or City:

Trip Planner

Search our weather history database for the weather conditions in past years. The results will help you decide how hot, cold, wet, or windy it might be!

Date:

Astronomy

Oct. 20, 2011 Rise Set
Actual Time 7:44 AM EDT 6:38 PM EDT
Civil Twilight 7:15 AM EDT 7:06 PM EDT
Nautical Twilight 6:43 AM EDT 7:38 PM EDT
Astronomical Twilight 6:11 AM EDT 8:10 PM EDT
Moon 12:22 AM EDT (10/20) 2:51 PM EDT (10/20)
Length of Visible Light 11h 50m
Length of Day
10h 54m
Last Quarter, 44% of the Moon is Illuminated
Oct 20
Last Quarter
Oct 26
New
Nov 2
First Quarter
Nov 10
Full
Nov 18
Last Quarter

Hourly Weather History & Observations

Time (EDT) Temp. Windchill Dew Point Humidity Pressure Visibility Wind Dir Wind Speed Gust Speed Precip Events Conditions
12:08 AM 55.4 °F - 50.0 °F 82% 29.15 in 10.0 mi South 19.6 mph 38.0 mph N/A   Mostly Cloudy
12:26 AM 55.4 °F - 48.2 °F 77% 29.16 in 10.0 mi South 19.6 mph 28.8 mph 0.01 in   Overcast
12:53 AM 54.0 °F - 48.0 °F 80% 29.12 in 10.0 mi South 16.1 mph 25.3 mph 0.01 in   Mostly Cloudy
1:30 AM 53.6 °F - 48.2 °F 82% 29.16 in 10.0 mi South 15.0 mph 24.2 mph N/A   Mostly Cloudy
1:53 AM 54.0 °F - 46.0 °F 75% 29.17 in 10.0 mi South 16.1 mph 28.8 mph N/A   Overcast
2:53 AM 51.1 °F - 45.0 °F 80% 29.18 in 10.0 mi South 16.1 mph - N/A   Overcast
3:53 AM 51.1 °F - 44.1 °F 77% 29.18 in 10.0 mi SSE 13.8 mph 25.3 mph N/A   Overcast
4:53 AM 50.0 °F - 43.0 °F 77% 29.18 in 10.0 mi South 15.0 mph 24.2 mph N/A   Overcast
5:49 AM 50.0 °F - 42.8 °F 76% 29.17 in 10.0 mi South 17.3 mph 28.8 mph N/A   Overcast
5:53 AM 50.0 °F - 42.1 °F 74% 29.17 in 10.0 mi SSE 18.4 mph 28.8 mph N/A   Overcast
6:14 AM 48.2 °F - 42.8 °F 82% 29.17 in 10.0 mi South 19.6 mph 27.6 mph N/A   Overcast
6:53 AM 48.9 °F - 42.1 °F 77% 29.18 in 10.0 mi South 21.9 mph 31.1 mph N/A   Overcast
7:53 AM 48.0 °F - 41.0 °F 77% 29.20 in 10.0 mi South 12.7 mph 27.6 mph N/A   Overcast
8:53 AM 46.9 °F - 41.0 °F 80% 29.21 in 10.0 mi South 16.1 mph 25.3 mph N/A   Overcast
9:53 AM 48.0 °F - 41.0 °F 77% 29.22 in 10.0 mi South 16.1 mph 32.2 mph N/A   Overcast
10:53 AM 48.0 °F - 39.9 °F 74% 29.22 in 10.0 mi South 19.6 mph 31.1 mph N/A   Overcast
11:53 AM 48.0 °F - 37.9 °F 68% 29.24 in 10.0 mi South 17.3 mph 31.1 mph N/A   Overcast
12:53 PM 46.9 °F - 39.0 °F 74% 29.26 in 10.0 mi South 19.6 mph 32.2 mph N/A   Overcast
1:53 PM 46.0 °F 39.9 °F 41.0 °F 83% 29.25 in 9.0 mi South 13.8 mph 20.7 mph N/A   Overcast
2:35 PM 46.4 °F 40.1 °F 42.8 °F 87% 29.25 in 2.0 mi South 15.0 mph 24.2 mph N/A   Overcast
2:38 PM 46.4 °F 40.1 °F 42.8 °F 87% 29.25 in 2.0 mi South 15.0 mph 24.2 mph 0.00 in Rain Light Rain
2:53 PM 46.9 °F - 43.0 °F 86% 29.26 in 3.0 mi South 16.1 mph 26.5 mph 0.00 in Rain Light Rain
2:57 PM 46.4 °F 39.8 °F 44.6 °F 93% 29.26 in 2.0 mi South 16.1 mph 24.2 mph 0.00 in Rain Light Rain
3:48 PM 48.2 °F - 46.4 °F 93% 29.29 in 2.0 mi SW 19.6 mph 27.6 mph 0.00 in Rain Light Rain
3:53 PM 48.2 °F - 46.4 °F 93% 29.30 in 2.0 mi WSW 21.9 mph 29.9 mph N/A Rain Light Rain
4:00 PM 48.2 °F - 46.4 °F 93% 29.31 in 6.0 mi SW 18.4 mph 29.9 mph 0.00 in Rain Light Rain
4:43 PM 46.4 °F 38.7 °F 44.6 °F 93% 29.35 in 5.0 mi SW 20.7 mph 32.2 mph 0.00 in Rain Light Rain
4:53 PM 46.9 °F - 44.1 °F 90% 29.37 in 2.5 mi SW 16.1 mph 28.8 mph 0.00 in Rain Light Rain
5:00 PM 46.4 °F 38.5 °F 44.6 °F 93% 29.37 in 6.0 mi SW 21.9 mph 27.6 mph 0.00 in Rain Light Rain
5:15 PM 46.4 °F 39.2 °F 44.6 °F 93% 29.38 in 2.5 mi SW 18.4 mph 27.6 mph 0.00 in Rain Light Rain
5:33 PM 46.4 °F 39.0 °F 42.8 °F 87% 29.40 in 2.5 mi SW 19.6 mph 29.9 mph 0.00 in Rain Light Rain
5:53 PM 46.0 °F 38.5 °F 43.0 °F 89% 29.43 in 2.5 mi SW 19.6 mph 27.6 mph 0.00 in Rain Light Rain
5:58 PM 46.4 °F 38.5 °F 42.8 °F 87% 29.42 in 6.0 mi SW 21.9 mph 29.9 mph 0.00 in Rain Light Rain
6:12 PM 46.4 °F 38.1 °F 42.8 °F 87% 29.44 in 10.0 mi SW 24.2 mph 31.1 mph 0.00 in Rain Light Rain
6:53 PM 45.0 °F 36.6 °F 42.1 °F 90% 29.48 in 10.0 mi SW 21.9 mph 27.6 mph 0.00 in Rain Light Rain
7:16 PM 46.4 °F 38.5 °F 42.8 °F 87% 29.49 in 10.0 mi WSW 21.9 mph 31.1 mph 0.00 in Rain Light Rain
7:28 PM 46.4 °F 39.0 °F 42.8 °F 87% 29.50 in 9.0 mi SW 19.6 mph 25.3 mph 0.00 in Rain Light Rain
7:53 PM 46.0 °F 38.8 °F 42.1 °F 86% 29.52 in 7.0 mi SW 18.4 mph 25.3 mph 0.00 in Rain Rain
8:53 PM 46.0 °F 38.8 °F 43.0 °F 89% 29.56 in 8.0 mi SW 18.4 mph 23.0 mph 0.02 in Rain Light Rain
9:22 PM 46.4 °F 39.5 °F 42.8 °F 87% 29.57 in 6.0 mi SW 17.3 mph 28.8 mph 0.04 in Rain Rain
9:37 PM 46.4 °F 38.5 °F 42.8 °F 87% 29.58 in 7.0 mi WSW 21.9 mph 27.6 mph 0.04 in Rain Light Rain
9:53 PM 46.0 °F 37.8 °F 43.0 °F 89% 29.60 in 4.0 mi WSW 23.0 mph 29.9 mph 0.10 in Rain Rain
10:30 PM 46.4 °F 38.7 °F 42.8 °F 87% 29.62 in 6.0 mi WSW 20.7 mph 28.8 mph 0.00 in Rain Light Rain
10:53 PM 46.0 °F 38.3 °F 43.0 °F 89% 29.64 in 5.0 mi WSW 20.7 mph 31.1 mph 0.09 in Rain Light Rain
11:00 PM 46.4 °F 37.9 °F 42.8 °F 87% 29.63 in 10.0 mi WSW 25.3 mph 33.4 mph 0.00 in Rain Light Rain
11:53 PM 45.0 °F 37.6 °F 42.1 °F 90% 29.67 in 7.0 mi WSW 17.3 mph - 0.11 in Rain Rain